Terminal Aerodrome Forecast
Issued by NWS

Home | Current Version | Previous Version | Graphics & Text | Print | Product List | Glossary On
Versions: 1 2 3 4 5 6 7 8 9 10 11 12 13 14 15 16 17 18 19 20 21 22
000
FTUS43 KGRB 182300
TAFCWA
TAF
KCWA 182337Z 1900/1924 33004KT P6SM BKN019
      TEMPO 1900/1903 FEW019
     FM190300 VRB02KT P6SM BKN250
     FM190700 VRB02KT P6SM OVC020
     FM191400 16004KT 6SM BR OVC015
     FM192200 18004KT P6SM SCT015 OVC100
      AMD LTD TO CLD VIS AND WIND 1903/1911=

USA.gov is the U.S. government's official web portal to all federal, state and local government web resources and services.